1998-067JL

Last updated on Sun May 29 2016 17:36:35 GMT+0000 (Coordinated Universal Time)

1 41490U 98067JL 16150.25130808 .00018825 00000-0 27409-3 0 9997 2 41490 51.6416 152.4197 0002152 348.1050 100.2304 15.55765748 1669

Satellite not in orbit